Time,TemperatureF,DewpointF,PressureIn,WindDirection,WindDirectionDegrees,WindSpeedMPH,WindSpeedGustMPH,Humidity,HourlyPrecipIn,Conditions,Clouds,dailyrainin,SolarRadiationWatts/m^2,SoftwareType,DateUTC
2013-01-30 00:01:00,59.7,56.2,30.02,SE,136,0.0,2.0,88,0.00,,,0.00,0.00,VWS V14.01,2013-01-30 05:01:00,
2013-01-30 00:02:00,59.8,56.2,30.02,South,185,2.0,2.0,88,0.00,,,0.00,0.00,VWS V14.01,2013-01-30 05:02:00,
2013-01-30 00:03:00,59.9,56.3,30.02,SSE,152,0.0,1.0,88,0.00,,,0.00,0.00,VWS V14.01,2013-01-30 05:03:00,
2013-01-30 00:08:00,60.2,56.6,30.02,SSE,155,0.0,0.0,88,0.00,,,0.00,0.00,VWS V14.01,2013-01-30 05:08:00,
2013-01-30 00:13:00,60.4,56.5,30.02,SE,146,1.0,2.0,87,0.00,,,0.00,0.00,VWS V14.01,2013-01-30 05:13:00,
2013-01-30 00:18:00,60.5,56.6,30.01,SE,146,0.0,1.0,87,0.00,,,0.00,0.00,VWS V14.01,2013-01-30 05:18:00,
2013-01-30 00:23:00,60.7,56.8,30.01,SE,138,5.0,5.0,87,0.00,,,0.00,0.00,VWS V14.01,2013-01-30 05:23:00,
2013-01-30 00:28:00,60.9,57.0,30.01,SE,143,2.0,2.0,87,0.00,,,0.00,0.00,VWS V14.01,2013-01-30 05:28:00,
2013-01-30 00:33:00,61.2,57.3,30.00,SSE,160,2.0,5.0,87,0.00,,,0.00,0.00,VWS V14.01,2013-01-30 05:33:00,
2013-01-30 00:38:00,61.5,57.6,30.00,SSW,194,3.0,3.0,87,0.00,,,0.00,0.00,VWS V14.01,2013-01-30 05:38:00,
2013-01-30 00:43:00,61.7,57.8,30.00,South,183,2.0,4.0,87,0.00,,,0.00,0.00,VWS V14.01,2013-01-30 05:43:00,
2013-01-30 00:48:00,61.8,57.6,30.00,South,173,1.0,3.0,86,0.00,,,0.00,0.00,VWS V14.01,2013-01-30 05:48:00,
2013-01-30 00:53:00,61.9,57.7,30.00,South,169,1.0,2.0,86,0.00,,,0.00,0.00,VWS V14.01,2013-01-30 05:53:00,
2013-01-30 00:58:00,62.0,57.8,30.00,SSE,164,0.0,1.0,86,0.00,,,0.00,0.00,VWS V14.01,2013-01-30 05:58:00,
2013-01-30 01:03:00,62.0,57.8,30.00,SSE,164,2.0,2.0,86,0.00,,,0.00,0.00,VWS V14.01,2013-01-30 06:03:00,
2013-01-30 01:08:00,62.2,58.0,30.00,SSE,155,1.0,4.0,86,0.00,,,0.00,0.00,VWS V14.01,2013-01-30 06:08:00,
2013-01-30 01:13:00,62.3,58.1,29.99,SSE,153,0.0,1.0,86,0.00,,,0.00,0.00,VWS V14.01,2013-01-30 06:13:00,
2013-01-30 01:18:00,62.4,58.2,29.99,South,175,0.0,1.0,86,0.00,,,0.00,0.00,VWS V14.01,2013-01-30 06:18:00,
2013-01-30 01:23:00,62.4,58.2,29.98,SE,146,1.0,2.0,86,0.00,,,0.00,0.00,VWS V14.01,2013-01-30 06:23:00,
2013-01-30 01:28:00,62.4,58.2,29.98,South,186,0.0,3.0,86,0.00,,,0.00,0.00,VWS V14.01,2013-01-30 06:28:00,
2013-01-30 01:33:00,62.4,58.2,29.98,SE,143,5.0,5.0,86,0.00,,,0.00,0.00,VWS V14.01,2013-01-30 06:33:00,
2013-01-30 01:38:00,62.5,58.3,29.98,SSE,151,2.0,4.0,86,0.00,,,0.00,0.00,VWS V14.01,2013-01-30 06:38:00,
2013-01-30 01:43:00,62.5,58.6,29.98,South,184,2.0,2.0,87,0.00,,,0.00,0.00,VWS V14.01,2013-01-30 06:43:00,
2013-01-30 01:48:00,62.5,58.3,29.97,SSE,167,3.0,3.0,86,0.00,,,0.00,0.00,VWS V14.01,2013-01-30 06:48:00,
2013-01-30 01:53:00,62.6,58.7,29.97,SE,138,1.0,2.0,87,0.00,,,0.00,0.00,VWS V14.01,2013-01-30 06:53:00,
2013-01-30 01:58:00,62.6,58.7,29.97,South,175,2.0,2.0,87,0.00,,,0.00,0.00,VWS V14.01,2013-01-30 06:58:00,
2013-01-30 02:03:00,62.6,58.7,29.97,SSW,196,2.0,2.0,87,0.00,,,0.00,0.00,VWS V14.01,2013-01-30 07:03:00,
2013-01-30 02:08:00,62.7,58.8,29.97,South,169,1.0,3.0,87,0.00,,,0.00,0.00,VWS V14.01,2013-01-30 07:08:00,
2013-01-30 02:13:00,62.7,58.8,29.97,South,169,1.0,2.0,87,0.00,,,0.00,0.00,VWS V14.01,2013-01-30 07:13:00,
2013-01-30 02:18:00,62.7,58.8,29.96,South,188,0.0,2.0,87,0.00,,,0.00,0.00,VWS V14.01,2013-01-30 07:18:00,
2013-01-30 02:23:00,62.8,59.2,29.96,SE,138,2.0,3.0,88,0.00,,,0.00,0.00,VWS V14.01,2013-01-30 07:23:00,
2013-01-30 02:28:00,62.8,59.2,29.96,South,171,1.0,3.0,88,0.00,,,0.00,0.00,VWS V14.01,2013-01-30 07:28:00,
2013-01-30 02:33:00,62.8,59.2,29.96,SE,144,2.0,3.0,88,0.00,,,0.00,0.00,VWS V14.01,2013-01-30 07:33:00,
2013-01-30 02:38:00,62.9,59.3,29.95,South,170,4.0,5.0,88,0.00,,,0.00,0.00,VWS V14.01,2013-01-30 07:38:00,
2013-01-30 02:43:00,62.9,59.3,29.95,SSE,163,4.0,7.0,88,0.00,,,0.00,0.00,VWS V14.01,2013-01-30 07:43:00,
2013-01-30 02:48:00,62.9,59.3,29.95,ESE,122,4.0,4.0,88,0.00,,,0.00,0.00,VWS V14.01,2013-01-30 07:48:00,
2013-01-30 02:53:00,62.9,59.3,29.95,South,183,2.0,2.0,88,0.00,,,0.00,0.00,VWS V14.01,2013-01-30 07:53:00,
2013-01-30 02:58:00,63.0,59.4,29.95,South,183,1.0,2.0,88,0.00,,,0.00,0.00,VWS V14.01,2013-01-30 07:58:00,
2013-01-30 03:03:00,63.0,59.7,29.95,SSE,161,4.0,8.0,89,0.00,,,0.00,0.00,VWS V14.01,2013-01-30 08:03:00,
2013-01-30 03:08:00,63.1,59.8,29.95,SSE,164,3.0,3.0,89,0.00,,,0.00,0.00,VWS V14.01,2013-01-30 08:08:00,
2013-01-30 03:13:00,63.1,59.8,29.94,SE,146,5.0,5.0,89,0.00,,,0.00,0.00,VWS V14.01,2013-01-30 08:13:00,
2013-01-30 03:18:00,63.2,59.9,29.94,SW,221,1.0,2.0,89,0.00,,,0.00,0.00,VWS V14.01,2013-01-30 08:18:00,
2013-01-30 03:23:00,63.2,59.9,29.94,SSE,167,2.0,7.0,89,0.00,,,0.00,0.00,VWS V14.01,2013-01-30 08:23:00,
2013-01-30 03:28:00,63.2,59.9,29.94,SSW,194,1.0,3.0,89,0.00,,,0.00,0.00,VWS V14.01,2013-01-30 08:28:00,
2013-01-30 03:33:00,63.3,60.0,29.94,South,185,0.0,1.0,89,0.00,,,0.00,0.00,VWS V14.01,2013-01-30 08:33:00,
2013-01-30 03:38:00,63.3,60.0,29.94,South,182,1.0,2.0,89,0.00,,,0.00,0.00,VWS V14.01,2013-01-30 08:38:00,
2013-01-30 03:43:00,63.3,60.0,29.94,South,173,1.0,2.0,89,0.00,,,0.00,0.00,VWS V14.01,2013-01-30 08:43:00,
2013-01-30 03:48:00,63.3,60.0,29.93,South,169,3.0,3.0,89,0.00,,,0.00,0.00,VWS V14.01,2013-01-30 08:48:00,
2013-01-30 03:53:00,63.3,60.0,29.93,SW,234,3.0,4.0,89,0.00,,,0.00,0.00,VWS V14.01,2013-01-30 08:53:00,
2013-01-30 03:58:00,63.3,60.0,29.92,South,170,1.0,1.0,89,0.00,,,0.00,0.00,VWS V14.01,2013-01-30 08:58:00,
2013-01-30 04:03:00,63.3,60.0,29.92,South,172,3.0,5.0,89,0.00,,,0.00,0.00,VWS V14.01,2013-01-30 09:03:00,
2013-01-30 04:08:00,63.4,60.1,29.92,South,177,3.0,3.0,89,0.00,,,0.00,0.00,VWS V14.01,2013-01-30 09:08:00,
2013-01-30 04:13:00,63.4,60.1,29.92,South,188,2.0,2.0,89,0.00,,,0.00,0.00,VWS V14.01,2013-01-30 09:13:00,
2013-01-30 04:18:00,63.3,60.0,29.92,South,169,3.0,7.0,89,0.00,,,0.00,0.00,VWS V14.01,2013-01-30 09:18:00,
2013-01-30 04:23:00,63.3,60.0,29.91,South,173,1.0,2.0,89,0.00,,,0.00,0.00,VWS V14.01,2013-01-30 09:23:00,
2013-01-30 04:28:00,63.4,60.1,29.91,South,182,0.0,4.0,89,0.00,,,0.00,0.00,VWS V14.01,2013-01-30 09:28:00,
2013-01-30 04:33:00,63.4,60.1,29.91,SSE,159,2.0,4.0,89,0.00,,,0.00,0.00,VWS V14.01,2013-01-30 09:33:00,
2013-01-30 04:38:00,63.5,60.2,29.90,SE,137,2.0,4.0,89,0.00,,,0.00,0.00,VWS V14.01,2013-01-30 09:38:00,
2013-01-30 04:43:00,63.5,60.2,29.90,SSE,161,3.0,3.0,89,0.00,,,0.00,0.00,VWS V14.01,2013-01-30 09:43:00,
2013-01-30 04:48:00,63.5,60.2,29.90,SSE,149,3.0,3.0,89,0.00,,,0.00,0.00,VWS V14.01,2013-01-30 09:48:00,
2013-01-30 04:53:00,63.4,60.1,29.90,SSE,155,1.0,3.0,89,0.00,,,0.00,0.00,VWS V14.01,2013-01-30 09:53:00,
2013-01-30 04:58:00,63.4,60.1,29.89,SSE,149,2.0,3.0,89,0.00,,,0.00,0.00,VWS V14.01,2013-01-30 09:58:00,
2013-01-30 05:03:00,63.4,60.1,29.89,ESE,113,4.0,4.0,89,0.00,,,0.00,0.00,VWS V14.01,2013-01-30 10:03:00,
2013-01-30 05:08:00,63.4,60.1,29.89,West,270,4.0,5.0,89,0.00,,,0.00,0.00,VWS V14.01,2013-01-30 10:08:00,
2013-01-30 05:13:00,63.4,60.1,29.89,SSW,196,0.0,1.0,89,0.00,,,0.00,0.00,VWS V14.01,2013-01-30 10:13:00,
2013-01-30 05:18:00,63.4,60.1,29.89,South,169,10.0,10.0,89,0.00,,,0.00,0.00,VWS V14.01,2013-01-30 10:18:00,
2013-01-30 05:23:00,63.4,60.1,29.89,SSW,211,0.0,1.0,89,0.00,,,0.00,0.00,VWS V14.01,2013-01-30 10:23:00,
2013-01-30 05:28:00,63.4,60.1,29.89,SSW,193,0.0,0.0,89,0.00,,,0.00,0.00,VWS V14.01,2013-01-30 10:28:00,
2013-01-30 05:33:00,63.4,60.1,29.89,West,276,4.0,4.0,89,0.00,,,0.00,0.00,VWS V14.01,2013-01-30 10:33:00,
2013-01-30 05:38:00,63.4,60.1,29.89,SSW,202,1.0,2.0,89,0.00,,,0.00,0.00,VWS V14.01,2013-01-30 10:38:00,
2013-01-30 05:43:00,63.4,60.1,29.89,SSE,168,2.0,2.0,89,0.00,,,0.00,0.00,VWS V14.01,2013-01-30 10:43:00,
2013-01-30 05:48:00,63.5,60.2,29.89,SSE,167,5.0,5.0,89,0.00,,,0.00,0.00,VWS V14.01,2013-01-30 10:48:00,
2013-01-30 05:53:00,63.5,60.2,29.88,SSE,155,2.0,2.0,89,0.00,,,0.00,0.00,VWS V14.01,2013-01-30 10:53:00,
2013-01-30 05:58:00,63.6,60.3,29.88,South,185,4.0,4.0,89,0.00,,,0.00,0.00,VWS V14.01,2013-01-30 10:58:00,
2013-01-30 06:03:00,63.6,60.3,29.88,SSW,205,2.0,2.0,89,0.00,,,0.00,0.00,VWS V14.01,2013-01-30 11:03:00,
2013-01-30 06:08:00,63.6,60.3,29.88,SSE,147,1.0,2.0,89,0.00,,,0.00,0.00,VWS V14.01,2013-01-30 11:08:00,
2013-01-30 06:13:00,63.7,60.4,29.87,SE,136,10.0,10.0,89,0.00,,,0.00,0.00,VWS V14.01,2013-01-30 11:13:00,
2013-01-30 06:18:00,63.8,60.5,29.88,South,174,2.0,2.0,89,0.00,,,0.00,0.00,VWS V14.01,2013-01-30 11:18:00,
2013-01-30 06:23:00,63.8,60.5,29.87,SSW,212,1.0,1.0,89,0.00,,,0.00,0.00,VWS V14.01,2013-01-30 11:23:00,
2013-01-30 06:28:00,63.9,60.6,29.87,SSW,207,4.0,4.0,89,0.00,,,0.00,0.00,VWS V14.01,2013-01-30 11:28:00,
2013-01-30 06:33:00,63.9,60.6,29.86,South,186,2.0,3.0,89,0.00,,,0.00,0.00,VWS V14.01,2013-01-30 11:33:00,
2013-01-30 06:38:00,64.0,60.7,29.86,SW,236,3.0,5.0,89,0.00,,,0.00,0.00,VWS V14.01,2013-01-30 11:38:00,
2013-01-30 06:43:00,64.0,60.7,29.86,SE,135,4.0,5.0,89,0.00,,,0.00,0.00,VWS V14.01,2013-01-30 11:43:00,
2013-01-30 06:48:00,64.1,60.8,29.86,SSE,160,4.0,4.0,89,0.00,,,0.00,0.00,VWS V14.01,2013-01-30 11:48:00,
2013-01-30 06:53:00,64.1,60.8,29.86,SSE,150,6.0,6.0,89,0.00,,,0.00,0.00,VWS V14.01,2013-01-30 11:53:00,
2013-01-30 06:58:00,64.2,60.6,29.86,SE,134,3.0,4.0,88,0.00,,,0.00,0.00,VWS V14.01,2013-01-30 11:58:00,
2013-01-30 07:03:00,64.2,60.6,29.86,South,179,0.0,0.0,88,0.00,,,0.00,0.00,VWS V14.01,2013-01-30 12:03:00,
2013-01-30 07:08:00,64.3,61.0,29.86,South,182,2.0,2.0,89,0.00,,,0.00,0.00,VWS V14.01,2013-01-30 12:08:00,
2013-01-30 07:13:00,64.3,61.0,29.85,SE,138,3.0,3.0,89,0.00,,,0.00,0.00,VWS V14.01,2013-01-30 12:13:00,
2013-01-30 07:18:00,64.3,61.0,29.85,South,182,4.0,4.0,89,0.00,,,0.00,0.00,VWS V14.01,2013-01-30 12:18:00,
2013-01-30 07:23:00,64.4,61.1,29.85,South,183,0.0,0.0,89,0.00,,,0.00,0.00,VWS V14.01,2013-01-30 12:23:00,
2013-01-30 07:28:00,64.4,61.1,29.85,SW,220,2.0,2.0,89,0.00,,,0.00,0.00,VWS V14.01,2013-01-30 12:28:00,
2013-01-30 07:33:00,64.4,61.1,29.84,SSW,198,1.0,3.0,89,0.00,,,0.00,0.00,VWS V14.01,2013-01-30 12:33:00,
2013-01-30 07:38:00,64.4,61.1,29.84,SE,133,2.0,5.0,89,0.00,,,0.00,0.00,VWS V14.01,2013-01-30 12:38:00,
2013-01-30 07:43:00,64.5,61.5,29.84,East,80,2.0,5.0,90,0.00,,,0.00,0.00,VWS V14.01,2013-01-30 12:43:00,
2013-01-30 07:48:00,64.6,61.6,29.84,South,170,5.0,5.0,90,0.00,,,0.00,0.00,VWS V14.01,2013-01-30 12:48:00,
2013-01-30 07:53:00,64.7,61.7,29.83,SSW,213,2.0,4.0,90,0.00,,,0.00,5.00,VWS V14.01,2013-01-30 12:53:00,
2013-01-30 07:58:00,64.9,61.9,29.83,SSW,207,0.0,1.0,90,0.00,,,0.00,7.00,VWS V14.01,2013-01-30 12:58:00,
2013-01-30 08:03:00,64.9,61.9,29.83,SE,146,6.0,6.0,90,0.00,,,0.00,7.00,VWS V14.01,2013-01-30 13:03:00,
2013-01-30 08:08:00,65.0,61.7,29.83,South,178,4.0,6.0,89,0.00,,,0.00,7.00,VWS V14.01,2013-01-30 13:08:00,
2013-01-30 08:13:00,65.1,61.8,29.83,South,178,9.0,9.0,89,0.00,,,0.00,5.00,VWS V14.01,2013-01-30 13:13:00,
2013-01-30 08:18:00,65.2,61.9,29.83,South,191,3.0,3.0,89,0.00,,,0.00,7.00,VWS V14.01,2013-01-30 13:18:00,
2013-01-30 08:23:00,65.3,62.0,29.83,South,171,1.0,3.0,89,0.00,,,0.00,11.00,VWS V14.01,2013-01-30 13:23:00,
2013-01-30 08:28:00,65.3,62.0,29.82,South,175,5.0,6.0,89,0.00,,,0.00,9.00,VWS V14.01,2013-01-30 13:28:00,
2013-01-30 08:33:00,65.3,62.0,29.83,SSE,167,4.0,4.0,89,0.00,,,0.00,11.00,VWS V14.01,2013-01-30 13:33:00,
2013-01-30 08:38:00,65.3,62.3,29.82,SSE,150,3.0,3.0,90,0.00,,,0.00,12.00,VWS V14.01,2013-01-30 13:38:00,
2013-01-30 08:43:00,65.3,62.3,29.83,SW,229,7.0,7.0,90,0.00,,,0.00,7.00,VWS V14.01,2013-01-30 13:43:00,
2013-01-30 08:48:00,65.3,62.3,29.82,South,190,4.0,10.0,90,0.00,,,0.00,7.00,VWS V14.01,2013-01-30 13:48:00,
2013-01-30 08:53:00,65.2,62.2,29.82,SE,146,9.0,9.0,90,0.00,,,0.00,14.00,VWS V14.01,2013-01-30 13:53:00,
2013-01-30 08:57:00,65.2,62.5,29.82,South,169,0.0,5.0,91,0.00,,,0.00,19.00,VWS V14.01,2013-01-30 13:57:00,
2013-01-30 09:02:00,65.1,62.4,29.82,South,191,3.0,7.0,91,0.01,,,0.01,11.00,VWS V14.01,2013-01-30 14:02:00,
2013-01-30 09:07:00,65.0,62.6,29.82,South,190,2.0,3.0,92,0.01,,,0.01,12.00,VWS V14.01,2013-01-30 14:07:00,
2013-01-30 09:12:00,64.9,62.5,29.82,SSW,199,2.0,7.0,92,0.01,,,0.01,12.00,VWS V14.01,2013-01-30 14:12:00,
2013-01-30 09:17:00,64.8,62.4,29.82,SE,126,2.0,4.0,92,0.01,,,0.01,18.00,VWS V14.01,2013-01-30 14:17:00,
2013-01-30 09:22:00,64.7,62.6,29.81,SSE,163,2.0,3.0,93,0.01,,,0.01,19.00,VWS V14.01,2013-01-30 14:22:00,
2013-01-30 09:27:00,64.7,62.6,29.82,SSE,153,2.0,4.0,93,0.01,,,0.01,23.00,VWS V14.01,2013-01-30 14:27:00,
2013-01-30 09:32:00,64.7,62.6,29.82,SSE,165,3.0,3.0,93,0.01,,,0.01,9.00,VWS V14.01,2013-01-30 14:32:00,
2013-01-30 09:37:00,64.7,62.6,29.82,SSW,192,5.0,7.0,93,0.01,,,0.01,30.00,VWS V14.01,2013-01-30 14:37:00,
2013-01-30 09:42:00,64.7,62.6,29.81,South,171,3.0,4.0,93,0.01,,,0.01,19.00,VWS V14.01,2013-01-30 14:42:00,
2013-01-30 09:47:00,64.8,62.7,29.82,SSW,196,4.0,4.0,93,0.01,,,0.01,18.00,VWS V14.01,2013-01-30 14:47:00,
2013-01-30 09:52:00,64.8,62.7,29.82,SSE,150,4.0,4.0,93,0.01,,,0.01,21.00,VWS V14.01,2013-01-30 14:52:00,
2013-01-30 09:57:00,64.9,62.8,29.81,SSW,205,5.0,8.0,93,0.01,,,0.01,14.00,VWS V14.01,2013-01-30 14:57:00,
2013-01-30 10:02:00,65.0,62.6,29.81,South,178,4.0,11.0,92,0.00,,,0.01,11.00,VWS V14.01,2013-01-30 15:02:00,
2013-01-30 10:07:00,65.1,62.7,29.82,SSW,192,6.0,7.0,92,0.00,,,0.01,16.00,VWS V14.01,2013-01-30 15:07:00,
2013-01-30 10:12:00,65.2,62.8,29.81,South,190,4.0,10.0,92,0.00,,,0.01,12.00,VWS V14.01,2013-01-30 15:12:00,
2013-01-30 10:17:00,65.3,62.9,29.81,South,181,5.0,5.0,92,0.00,,,0.01,23.00,VWS V14.01,2013-01-30 15:17:00,
2013-01-30 10:22:00,65.4,63.0,29.81,SSE,154,4.0,5.0,92,0.00,,,0.01,40.00,VWS V14.01,2013-01-30 15:22:00,
2013-01-30 10:27:00,65.5,63.1,29.80,WSW,238,1.0,9.0,92,0.00,,,0.01,67.00,VWS V14.01,2013-01-30 15:27:00,
2013-01-30 10:32:00,65.7,63.3,29.80,SW,227,3.0,10.0,92,0.00,,,0.01,109.00,VWS V14.01,2013-01-30 15:32:00,
2013-01-30 10:37:00,65.9,63.2,29.80,SSW,211,3.0,5.0,91,0.00,,,0.01,83.00,VWS V14.01,2013-01-30 15:37:00,
2013-01-30 10:42:00,66.1,63.1,29.80,South,182,2.0,5.0,90,0.00,,,0.01,70.00,VWS V14.01,2013-01-30 15:42:00,
2013-01-30 10:47:00,66.2,63.2,29.80,SW,221,0.0,4.0,90,0.00,,,0.01,77.00,VWS V14.01,2013-01-30 15:47:00,
2013-01-30 10:52:00,66.3,63.3,29.80,South,173,4.0,4.0,90,0.00,,,0.01,49.00,VWS V14.01,2013-01-30 15:52:00,
2013-01-30 10:57:00,66.4,63.4,29.79,East,90,1.0,7.0,90,0.00,,,0.01,123.00,VWS V14.01,2013-01-30 15:57:00,
2013-01-30 11:02:00,66.6,63.6,29.78,South,180,6.0,16.0,90,0.00,,,0.01,229.00,VWS V14.01,2013-01-30 16:02:00,
2013-01-30 11:07:00,66.9,63.6,29.78,SE,143,7.0,12.0,89,0.00,,,0.01,90.00,VWS V14.01,2013-01-30 16:07:00,
2013-01-30 11:12:00,67.1,63.4,29.77,SSE,149,9.0,9.0,88,0.00,,,0.01,54.00,VWS V14.01,2013-01-30 16:12:00,
2013-01-30 11:17:00,67.1,63.4,29.77,South,169,4.0,4.0,88,0.00,,,0.01,33.00,VWS V14.01,2013-01-30 16:17:00,
2013-01-30 11:22:00,67.1,63.4,29.76,South,179,4.0,5.0,88,0.00,,,0.01,35.00,VWS V14.01,2013-01-30 16:22:00,
2013-01-30 11:27:00,67.0,63.3,29.76,SSE,147,6.0,10.0,88,0.00,,,0.01,26.00,VWS V14.01,2013-01-30 16:27:00,
2013-01-30 11:32:00,67.0,63.3,29.76,SSE,163,3.0,8.0,88,0.00,,,0.01,33.00,VWS V14.01,2013-01-30 16:32:00,
2013-01-30 11:37:00,67.0,63.3,29.75,SSE,161,5.0,6.0,88,0.00,,,0.01,44.00,VWS V14.01,2013-01-30 16:37:00,
2013-01-30 11:42:00,67.1,63.4,29.75,SSW,213,3.0,8.0,88,0.00,,,0.01,44.00,VWS V14.01,2013-01-30 16:42:00,
2013-01-30 11:47:00,67.1,63.1,29.74,South,180,6.0,7.0,87,0.00,,,0.01,44.00,VWS V14.01,2013-01-30 16:47:00,
2013-01-30 11:52:00,67.2,63.2,29.75,SW,219,4.0,11.0,87,0.00,,,0.01,25.00,VWS V14.01,2013-01-30 16:52:00,
2013-01-30 11:57:00,67.3,63.3,29.74,South,189,2.0,5.0,87,0.00,,,0.01,53.00,VWS V14.01,2013-01-30 16:57:00,
2013-01-30 12:02:00,67.4,63.4,29.74,South,174,4.0,16.0,87,0.00,,,0.01,19.00,VWS V14.01,2013-01-30 17:02:00,
2013-01-30 12:07:00,67.4,63.4,29.74,SSE,162,8.0,13.0,87,0.00,,,0.01,23.00,VWS V14.01,2013-01-30 17:07:00,
2013-01-30 12:12:00,67.4,63.4,29.74,West,269,10.0,10.0,87,0.00,,,0.01,46.00,VWS V14.01,2013-01-30 17:12:00,
2013-01-30 12:17:00,67.4,63.1,29.74,SE,142,6.0,7.0,86,0.00,,,0.01,69.00,VWS V14.01,2013-01-30 17:17:00,
2013-01-30 12:22:00,67.5,63.2,29.73,SSW,196,2.0,3.0,86,0.00,,,0.01,18.00,VWS V14.01,2013-01-30 17:22:00,
2013-01-30 12:27:00,67.5,63.2,29.72,SSE,168,4.0,17.0,86,0.00,,,0.01,26.00,VWS V14.01,2013-01-30 17:27:00,
2013-01-30 12:32:00,67.6,62.9,29.72,West,261,1.0,6.0,85,0.00,,,0.01,23.00,VWS V14.01,2013-01-30 17:32:00,
2013-01-30 12:37:00,67.6,62.9,29.71,South,190,3.0,7.0,85,0.00,,,0.01,23.00,VWS V14.01,2013-01-30 17:37:00,
2013-01-30 12:42:00,67.7,63.0,29.71,South,187,6.0,6.0,85,0.00,,,0.01,74.00,VWS V14.01,2013-01-30 17:42:00,
2013-01-30 12:47:00,67.9,62.9,29.70,South,186,4.0,14.0,84,0.00,,,0.01,139.00,VWS V14.01,2013-01-30 17:47:00,
2013-01-30 12:52:00,68.2,62.8,29.70,SW,232,4.0,6.0,83,0.00,,,0.01,44.00,VWS V14.01,2013-01-30 17:52:00,
2013-01-30 12:57:00,68.4,63.0,29.69,SSE,149,5.0,9.0,83,0.00,,,0.01,44.00,VWS V14.01,2013-01-30 17:57:00,
2013-01-30 13:02:00,68.5,62.8,29.69,SSE,155,1.0,3.0,82,0.00,,,0.01,46.00,VWS V14.01,2013-01-30 18:02:00,
2013-01-30 13:07:00,68.6,62.9,29.68,South,186,2.0,3.0,82,0.00,,,0.01,23.00,VWS V14.01,2013-01-30 18:07:00,
2013-01-30 13:12:00,68.7,63.0,29.68,SSE,162,6.0,8.0,82,0.00,,,0.01,35.00,VWS V14.01,2013-01-30 18:12:00,
2013-01-30 13:17:00,68.8,62.7,29.67,SSW,211,2.0,6.0,81,0.00,,,0.01,58.00,VWS V14.01,2013-01-30 18:17:00,
2013-01-30 13:22:00,68.8,63.1,29.66,SSW,195,4.0,7.0,82,0.00,,,0.01,23.00,VWS V14.01,2013-01-30 18:22:00,
2013-01-30 13:27:00,68.8,63.1,29.66,SSE,148,4.0,5.0,82,0.00,,,0.01,30.00,VWS V14.01,2013-01-30 18:27:00,
2013-01-30 13:32:00,68.8,63.1,29.66,South,175,3.0,5.0,82,0.00,,,0.01,23.00,VWS V14.01,2013-01-30 18:32:00,
2013-01-30 13:37:00,68.7,63.0,29.66,ESE,119,3.0,6.0,82,0.00,,,0.01,56.00,VWS V14.01,2013-01-30 18:37:00,
2013-01-30 13:42:00,68.7,63.0,29.65,South,178,6.0,6.0,82,0.00,,,0.01,33.00,VWS V14.01,2013-01-30 18:42:00,
2013-01-30 13:47:00,68.7,63.0,29.65,SSW,197,2.0,6.0,82,0.00,,,0.01,49.00,VWS V14.01,2013-01-30 18:47:00,
2013-01-30 13:52:00,68.7,63.0,29.64,South,180,3.0,3.0,82,0.00,,,0.01,67.00,VWS V14.01,2013-01-30 18:52:00,
2013-01-30 13:57:00,68.7,63.0,29.64,SSW,200,3.0,4.0,82,0.00,,,0.01,35.00,VWS V14.01,2013-01-30 18:57:00,
2013-01-30 14:02:00,68.7,63.0,29.63,SSW,213,3.0,5.0,82,0.00,,,0.01,47.00,VWS V14.01,2013-01-30 19:02:00,
2013-01-30 14:07:00,68.8,63.1,29.62,South,184,3.0,4.0,82,0.00,,,0.01,84.00,VWS V14.01,2013-01-30 19:07:00,
2013-01-30 14:12:00,68.9,63.2,29.63,South,186,3.0,9.0,82,0.00,,,0.01,62.00,VWS V14.01,2013-01-30 19:12:00,
2013-01-30 14:17:00,68.9,63.2,29.62,SSE,163,2.0,6.0,82,0.00,,,0.01,51.00,VWS V14.01,2013-01-30 19:17:00,
2013-01-30 14:22:00,68.9,63.2,29.62,SSW,211,3.0,9.0,82,0.00,,,0.01,12.00,VWS V14.01,2013-01-30 19:22:00,
2013-01-30 14:27:00,68.9,63.2,29.62,South,180,5.0,9.0,82,0.00,,,0.01,16.00,VWS V14.01,2013-01-30 19:27:00,
2013-01-30 14:32:00,68.9,63.2,29.62,SSE,152,5.0,10.0,82,0.00,,,0.01,16.00,VWS V14.01,2013-01-30 19:32:00,
2013-01-30 14:37:00,69.0,63.3,29.61,SW,227,3.0,6.0,82,0.00,,,0.01,18.00,VWS V14.01,2013-01-30 19:37:00,
2013-01-30 14:42:00,69.0,63.3,29.62,West,263,1.0,2.0,82,0.00,,,0.01,21.00,VWS V14.01,2013-01-30 19:42:00,
2013-01-30 14:47:00,69.0,63.3,29.61,South,171,4.0,4.0,82,0.00,,,0.01,12.00,VWS V14.01,2013-01-30 19:47:00,
2013-01-30 14:52:00,69.0,62.9,29.61,South,169,1.0,6.0,81,0.00,,,0.01,18.00,VWS V14.01,2013-01-30 19:52:00,
2013-01-30 14:57:00,69.0,62.9,29.61,South,176,1.0,4.0,81,0.00,,,0.01,16.00,VWS V14.01,2013-01-30 19:57:00,
2013-01-30 15:02:00,69.0,62.9,29.61,SSE,168,4.0,4.0,81,0.00,,,0.01,18.00,VWS V14.01,2013-01-30 20:02:00,
2013-01-30 15:07:00,69.1,63.0,29.60,SSE,165,2.0,5.0,81,0.00,,,0.01,30.00,VWS V14.01,2013-01-30 20:07:00,
2013-01-30 15:12:00,69.2,62.8,29.60,South,171,3.0,7.0,80,0.00,,,0.01,107.00,VWS V14.01,2013-01-30 20:12:00,
2013-01-30 15:17:00,69.4,63.0,29.59,SE,135,4.0,4.0,80,0.00,,,0.01,163.00,VWS V14.01,2013-01-30 20:17:00,
2013-01-30 15:22:00,69.6,62.8,29.59,SE,140,8.0,11.0,79,0.00,,,0.01,18.00,VWS V14.01,2013-01-30 20:22:00,
2013-01-30 15:27:00,69.8,62.6,29.58,South,175,3.0,10.0,78,0.00,,,0.01,65.00,VWS V14.01,2013-01-30 20:27:00,
2013-01-30 15:32:00,69.9,62.7,29.58,SSE,163,4.0,5.0,78,0.00,,,0.01,58.00,VWS V14.01,2013-01-30 20:32:00,
2013-01-30 15:37:00,70.0,62.8,29.58,South,178,6.0,6.0,78,0.00,,,0.01,35.00,VWS V14.01,2013-01-30 20:37:00,
2013-01-30 15:42:00,70.1,62.6,29.57,South,175,3.0,7.0,77,0.00,,,0.01,46.00,VWS V14.01,2013-01-30 20:42:00,
2013-01-30 15:47:00,70.2,62.3,29.57,SSE,163,4.0,8.0,76,0.00,,,0.01,30.00,VWS V14.01,2013-01-30 20:47:00,
2013-01-30 15:52:00,70.3,62.4,29.57,East,95,2.0,5.0,76,0.00,,,0.01,32.00,VWS V14.01,2013-01-30 20:52:00,
2013-01-30 15:57:00,70.3,62.4,29.56,SE,126,4.0,8.0,76,0.00,,,0.01,107.00,VWS V14.01,2013-01-30 20:57:00,
2013-01-30 16:02:00,70.4,62.1,29.56,SSE,151,6.0,8.0,75,0.00,,,0.01,44.00,VWS V14.01,2013-01-30 21:02:00,
2013-01-30 16:07:00,70.6,61.9,29.56,South,173,4.0,7.0,74,0.00,,,0.01,53.00,VWS V14.01,2013-01-30 21:07:00,
2013-01-30 16:12:00,70.8,62.1,29.55,SSE,153,9.0,9.0,74,0.00,,,0.01,54.00,VWS V14.01,2013-01-30 21:12:00,
2013-01-30 16:17:00,71.1,62.0,29.54,SSE,156,5.0,5.0,73,0.00,,,0.01,39.00,VWS V14.01,2013-01-30 21:17:00,
2013-01-30 16:22:00,71.2,61.7,29.54,SSE,154,4.0,4.0,72,0.00,,,0.01,18.00,VWS V14.01,2013-01-30 21:22:00,
2013-01-30 16:27:00,71.2,61.7,29.54,South,177,2.0,6.0,72,0.00,,,0.01,14.00,VWS V14.01,2013-01-30 21:27:00,
2013-01-30 16:32:00,71.2,61.3,29.53,SSE,164,4.0,9.0,71,0.00,,,0.01,30.00,VWS V14.01,2013-01-30 21:32:00,
2013-01-30 16:37:00,71.3,61.4,29.52,SSE,161,6.0,6.0,71,0.00,,,0.01,30.00,VWS V14.01,2013-01-30 21:37:00,
2013-01-30 16:42:00,71.3,61.0,29.53,SE,142,8.0,8.0,70,0.00,,,0.01,11.00,VWS V14.01,2013-01-30 21:42:00,
2013-01-30 16:47:00,71.4,61.1,29.53,SE,129,7.0,7.0,70,0.00,,,0.01,19.00,VWS V14.01,2013-01-30 21:47:00,
2013-01-30 16:52:00,71.5,61.2,29.52,SSE,159,2.0,4.0,70,0.00,,,0.01,16.00,VWS V14.01,2013-01-30 21:52:00,
2013-01-30 16:57:00,71.6,60.9,29.52,South,190,8.0,11.0,69,0.00,,,0.01,14.00,VWS V14.01,2013-01-30 21:57:00,
2013-01-30 17:02:00,71.6,60.9,29.52,South,180,7.0,14.0,69,0.00,,,0.01,16.00,VWS V14.01,2013-01-30 22:02:00,
2013-01-30 17:07:00,71.6,60.9,29.51,South,181,8.0,12.0,69,0.00,,,0.01,23.00,VWS V14.01,2013-01-30 22:07:00,
2013-01-30 17:12:00,71.6,60.9,29.51,SSE,168,11.0,11.0,69,0.00,,,0.01,18.00,VWS V14.01,2013-01-30 22:12:00,
2013-01-30 17:17:00,71.7,61.0,29.50,SSE,162,4.0,5.0,69,0.00,,,0.01,14.00,VWS V14.01,2013-01-30 22:17:00,
2013-01-30 17:22:00,71.7,61.0,29.50,SSE,161,7.0,14.0,69,0.00,,,0.01,14.00,VWS V14.01,2013-01-30 22:22:00,
2013-01-30 17:27:00,71.7,61.0,29.50,South,171,5.0,8.0,69,0.00,,,0.01,7.00,VWS V14.01,2013-01-30 22:27:00,
2013-01-30 17:32:00,71.7,61.0,29.50,SE,134,5.0,6.0,69,0.00,,,0.01,0.00,VWS V14.01,2013-01-30 22:32:00,
2013-01-30 17:37:00,71.6,60.9,29.50,SE,128,9.0,18.0,69,0.00,,,0.01,0.00,VWS V14.01,2013-01-30 22:37:00,
2013-01-30 17:42:00,71.6,60.9,29.49,South,170,4.0,6.0,69,0.00,,,0.01,0.00,VWS V14.01,2013-01-30 22:42:00,
2013-01-30 17:47:00,71.6,60.9,29.48,SSE,156,6.0,9.0,69,0.00,,,0.01,0.00,VWS V14.01,2013-01-30 22:47:00,
2013-01-30 17:52:00,71.5,60.4,29.47,SSE,148,7.0,8.0,68,0.00,,,0.01,0.00,VWS V14.01,2013-01-30 22:52:00,
2013-01-30 17:57:00,71.5,60.4,29.47,South,171,7.0,7.0,68,0.00,,,0.01,0.00,VWS V14.01,2013-01-30 22:57:00,
2013-01-30 18:02:00,71.4,60.7,29.46,ESE,114,10.0,10.0,69,0.00,,,0.01,0.00,VWS V14.01,2013-01-30 23:02:00,
2013-01-30 18:07:00,71.3,60.6,29.45,SE,134,5.0,17.0,69,0.00,,,0.01,0.00,VWS V14.01,2013-01-30 23:07:00,
2013-01-30 18:12:00,71.3,60.2,29.46,SE,125,3.0,6.0,68,0.00,,,0.01,0.00,VWS V14.01,2013-01-30 23:12:00,
2013-01-30 18:17:00,71.3,60.2,29.45,SE,146,4.0,10.0,68,0.00,,,0.01,0.00,VWS V14.01,2013-01-30 23:17:00,
2013-01-30 18:22:00,71.3,60.6,29.45,South,190,6.0,11.0,69,0.00,,,0.01,0.00,VWS V14.01,2013-01-30 23:22:00,
2013-01-30 18:27:00,71.1,60.4,29.44,South,173,6.0,6.0,69,0.00,,,0.01,0.00,VWS V14.01,2013-01-30 23:27:00,
2013-01-30 18:32:00,70.9,60.6,29.44,South,179,7.0,16.0,70,0.00,,,0.01,0.00,VWS V14.01,2013-01-30 23:32:00,
2013-01-30 18:37:00,70.7,60.5,29.43,SE,142,10.0,15.0,70,0.00,,,0.01,0.00,VWS V14.01,2013-01-30 23:37:00,
2013-01-30 18:42:00,70.6,60.3,29.43,South,171,4.0,18.0,70,0.00,,,0.01,0.00,VWS V14.01,2013-01-30 23:42:00,
2013-01-30 18:47:00,70.5,60.3,29.43,South,171,10.0,20.0,70,0.00,,,0.01,0.00,VWS V14.01,2013-01-30 23:47:00,
2013-01-30 18:52:00,70.4,60.2,29.42,SSE,164,9.0,11.0,70,0.00,,,0.01,0.00,VWS V14.01,2013-01-30 23:52:00,
2013-01-30 18:57:00,70.3,60.5,29.42,SSE,164,4.0,6.0,71,0.00,,,0.01,0.00,VWS V14.01,2013-01-30 23:57:00,
2013-01-30 19:02:00,69.7,61.0,29.42,SE,131,6.0,23.0,74,0.00,,,0.01,0.00,VWS V14.01,2013-01-31 00:02:00,
2013-01-30 19:07:00,69.0,60.8,29.41,South,171,5.0,7.0,75,0.00,,,0.01,0.00,VWS V14.01,2013-01-31 00:07:00,
2013-01-30 19:12:00,68.5,60.6,29.41,SE,131,8.0,16.0,76,0.01,,,0.02,0.00,VWS V14.01,2013-01-31 00:12:00,
2013-01-30 19:17:00,68.2,60.7,29.41,ESE,120,5.0,9.0,77,0.01,,,0.02,0.00,VWS V14.01,2013-01-31 00:17:00,
2013-01-30 19:22:00,68.2,60.7,29.40,SE,143,4.0,13.0,77,0.01,,,0.02,0.00,VWS V14.01,2013-01-31 00:22:00,
2013-01-30 19:27:00,68.3,60.8,29.41,SE,132,8.0,8.0,77,0.01,,,0.02,0.00,VWS V14.01,2013-01-31 00:27:00,
2013-01-30 19:32:00,68.2,61.1,29.41,South,184,6.0,12.0,78,0.01,,,0.02,0.00,VWS V14.01,2013-01-31 00:32:00,
2013-01-30 19:37:00,67.9,61.5,29.41,SW,214,6.0,10.0,80,0.02,,,0.03,0.00,VWS V14.01,2013-01-31 00:37:00,
2013-01-30 19:42:00,67.1,61.8,29.41,SE,136,6.0,7.0,83,0.05,,,0.06,0.00,VWS V14.01,2013-01-31 00:42:00,
2013-01-30 19:47:00,66.3,61.7,29.42,SSE,152,7.0,7.0,85,0.07,,,0.08,0.00,VWS V14.01,2013-01-31 00:47:00,
2013-01-30 19:52:00,65.8,61.5,29.41,SSE,159,6.0,8.0,86,0.08,,,0.09,0.00,VWS V14.01,2013-01-31 00:52:00,
2013-01-30 19:57:00,65.5,61.5,29.40,SSE,150,11.0,11.0,87,0.10,,,0.11,0.00,VWS V14.01,2013-01-31 00:57:00,
2013-01-30 20:02:00,65.2,61.6,29.39,SSE,148,10.0,19.0,88,0.10,,,0.11,0.00,VWS V14.01,2013-01-31 01:02:00,
2013-01-30 20:07:00,65.1,61.8,29.39,South,172,7.0,9.0,89,0.11,,,0.12,0.00,VWS V14.01,2013-01-31 01:07:00,
2013-01-30 20:12:00,64.8,61.8,29.39,SE,146,4.0,13.0,90,0.11,,,0.13,0.00,VWS V14.01,2013-01-31 01:12:00,
2013-01-30 20:17:00,64.7,61.7,29.38,SSE,168,13.0,20.0,90,0.12,,,0.14,0.00,VWS V14.01,2013-01-31 01:17:00,
2013-01-30 20:22:00,64.6,61.6,29.36,SSE,153,5.0,7.0,90,0.12,,,0.14,0.00,VWS V14.01,2013-01-31 01:22:00,
2013-01-30 20:27:00,64.4,61.7,29.40,WSW,252,4.0,9.0,91,0.13,,,0.15,0.00,VWS V14.01,2013-01-31 01:27:00,
2013-01-30 20:32:00,64.0,61.6,29.42,WSW,252,8.0,10.0,92,0.40,,,0.42,0.00,VWS V14.01,2013-01-31 01:32:00,
2013-01-30 20:37:00,63.7,61.6,29.42,WSW,246,2.0,4.0,93,0.45,,,0.48,0.00,VWS V14.01,2013-01-31 01:37:00,
2013-01-30 20:42:00,63.5,61.8,29.42,SSW,204,0.0,3.0,94,0.49,,,0.55,0.00,VWS V14.01,2013-01-31 01:42:00,
2013-01-30 20:47:00,63.3,61.5,29.42,SSW,202,1.0,6.0,94,0.48,,,0.56,0.00,VWS V14.01,2013-01-31 01:47:00,
2013-01-30 20:52:00,63.2,61.5,29.41,SSW,202,5.0,5.0,94,0.50,,,0.59,0.00,VWS V14.01,2013-01-31 01:52:00,
2013-01-30 20:57:00,63.1,61.7,29.41,South,190,5.0,5.0,95,0.50,,,0.61,0.00,VWS V14.01,2013-01-31 01:57:00,
2013-01-30 21:02:00,63.0,61.5,29.40,SSW,195,1.0,4.0,95,0.52,,,0.63,0.00,VWS V14.01,2013-01-31 02:02:00,
2013-01-30 21:07:00,62.9,61.5,29.41,SSW,203,3.0,5.0,95,0.53,,,0.65,0.00,VWS V14.01,2013-01-31 02:07:00,
2013-01-30 21:12:00,62.8,61.3,29.38,SSW,192,6.0,11.0,95,0.53,,,0.66,0.00,VWS V14.01,2013-01-31 02:12:00,
2013-01-30 21:17:00,62.7,61.2,29.39,SSW,204,1.0,2.0,95,0.53,,,0.67,0.00,VWS V14.01,2013-01-31 02:17:00,
2013-01-30 21:22:00,62.6,61.2,29.39,SE,141,8.0,8.0,95,0.54,,,0.68,0.00,VWS V14.01,2013-01-31 02:22:00,
2013-01-30 21:27:00,62.5,61.0,29.40,South,182,4.0,6.0,95,0.53,,,0.68,0.00,VWS V14.01,2013-01-31 02:27:00,
2013-01-30 21:32:00,62.4,61.0,29.39,South,171,5.0,6.0,95,0.28,,,0.68,0.00,VWS V14.01,2013-01-31 02:32:00,
2013-01-30 21:37:00,62.3,60.8,29.39,South,186,3.0,4.0,95,0.22,,,0.69,0.00,VWS V14.01,2013-01-31 02:37:00,
2013-01-30 21:42:00,62.3,60.8,29.39,SSW,194,2.0,10.0,95,0.15,,,0.70,0.00,VWS V14.01,2013-01-31 02:42:00,
2013-01-30 21:47:00,62.2,60.8,29.40,SW,215,1.0,3.0,95,0.17,,,0.73,0.00,VWS V14.01,2013-01-31 02:47:00,
2013-01-30 21:52:00,62.2,60.8,29.41,SW,219,4.0,11.0,95,0.14,,,0.73,0.00,VWS V14.01,2013-01-31 02:52:00,
2013-01-30 21:57:00,62.2,60.8,29.41,SSW,194,6.0,8.0,95,0.13,,,0.74,0.00,VWS V14.01,2013-01-31 02:57:00,
2013-01-30 22:02:00,62.1,60.7,29.41,SSW,197,7.0,11.0,95,0.14,,,0.76,0.00,VWS V14.01,2013-01-31 03:02:00,
2013-01-30 22:07:00,61.9,60.5,29.40,SSE,148,5.0,8.0,95,0.13,,,0.77,0.00,VWS V14.01,2013-01-31 03:07:00,
2013-01-30 22:12:00,61.8,60.4,29.40,South,176,6.0,9.0,95,0.13,,,0.79,0.00,VWS V14.01,2013-01-31 03:12:00,
2013-01-30 22:17:00,61.6,60.2,29.40,ESE,121,2.0,6.0,95,0.12,,,0.79,0.00,VWS V14.01,2013-01-31 03:17:00,
2013-01-30 22:22:00,61.5,60.1,29.40,SSW,200,5.0,11.0,95,0.12,,,0.80,0.00,VWS V14.01,2013-01-31 03:22:00,
2013-01-30 22:27:00,61.4,60.0,29.41,SSW,194,1.0,12.0,95,0.12,,,0.80,0.00,VWS V14.01,2013-01-31 03:27:00,
2013-01-30 22:32:00,61.3,59.9,29.42,SSW,202,2.0,3.0,95,0.12,,,0.80,0.00,VWS V14.01,2013-01-31 03:32:00,
2013-01-30 22:37:00,61.2,59.8,29.42,West,274,1.0,8.0,95,0.13,,,0.81,0.00,VWS V14.01,2013-01-31 03:37:00,
2013-01-30 22:42:00,61.1,59.7,29.42,SSE,152,7.0,7.0,95,0.11,,,0.81,0.00,VWS V14.01,2013-01-31 03:42:00,
2013-01-30 22:47:00,60.5,58.5,29.43,NNW,343,13.0,14.0,93,0.11,,,0.83,0.00,VWS V14.01,2013-01-31 03:47:00,
2013-01-30 22:52:00,58.7,55.8,29.44,NNW,333,9.0,9.0,90,0.12,,,0.85,0.00,VWS V14.01,2013-01-31 03:52:00,
2013-01-30 22:57:00,57.7,54.8,29.43,WSW,238,1.0,5.0,90,0.12,,,0.86,0.00,VWS V14.01,2013-01-31 03:57:00,
2013-01-30 23:02:00,56.7,53.8,29.43,WSW,240,2.0,8.0,90,0.10,,,0.86,0.00,VWS V14.01,2013-01-31 04:02:00,
2013-01-30 23:07:00,56.1,53.5,29.41,WNW,290,3.0,5.0,91,0.09,,,0.86,0.00,VWS V14.01,2013-01-31 04:07:00,
2013-01-30 23:12:00,55.5,52.9,29.41,West,261,2.0,5.0,91,0.07,,,0.86,0.00,VWS V14.01,2013-01-31 04:12:00,
2013-01-30 23:17:00,55.1,52.8,29.43,SSW,213,4.0,13.0,92,0.07,,,0.86,0.00,VWS V14.01,2013-01-31 04:17:00,
2013-01-30 23:22:00,54.8,52.5,29.43,SW,230,0.0,3.0,92,0.09,,,0.88,0.00,VWS V14.01,2013-01-31 04:22:00,
2013-01-30 23:27:00,54.6,52.6,29.42,WSW,242,4.0,5.0,93,0.10,,,0.90,0.00,VWS V14.01,2013-01-31 04:27:00,
2013-01-30 23:32:00,54.3,52.3,29.44,WNW,291,0.0,2.0,93,0.11,,,0.91,0.00,VWS V14.01,2013-01-31 04:32:00,
2013-01-30 23:37:00,54.1,52.1,29.44,SSW,197,4.0,7.0,93,0.15,,,0.96,0.00,VWS V14.01,2013-01-31 04:37:00,
2013-01-30 23:42:00,54.0,52.3,29.44,SW,229,0.0,1.0,94,0.17,,,0.98,0.00,VWS V14.01,2013-01-31 04:42:00,
2013-01-30 23:47:00,53.8,52.1,29.42,North,9,0.0,1.0,94,0.17,,,0.99,0.00,VWS V14.01,2013-01-31 04:47:00,
2013-01-30 23:52:00,53.7,52.0,29.44,SW,226,0.0,3.0,94,0.14,,,0.99,0.00,VWS V14.01,2013-01-31 04:52:00,
2013-01-30 23:57:00,53.7,52.3,29.43,SW,223,3.0,5.0,95,0.13,,,0.99,0.00,VWS V14.01,2013-01-31 04:57:00,